New Richmond, WI

4:30 PM CDT on April 25, 2018 (GMT -0500)
New Richmond Municipal

Weather History for KRNH - March, 2014

Change the Weather History Date:

Tuesday, March 25, 2014

  Actual Average (KSTP) Record (KSTP)
Temperature  
Mean Temperature 14 °F -  
Max Temperature 21 °F 43 °F 73 °F (2007)
Min Temperature 6 °F 27 °F 9 °F (2001)
Degree Days  
Heating Degree Days 52    
Moisture  
Dew Point 1 °F    
Average Humidity 58    
Maximum Humidity 85    
Minimum Humidity 47    
Precipitation  
Precipitation 0.00 in - - ()
Sea Level Pressure  
Sea Level Pressure 30.18 in    
Wind  
Wind Speed 14 mph (NW)    
Max Wind Speed 22 mph    
Max Gust Speed 32 mph    
Visibility 10 miles    
Events Snow    
Averages and records for this station are not official NWS values.
T = Trace of Precipitation, MM = Missing Value Source: NWS Daily Summary

Daily Weather History Graph

Daily Weather History Graph

Search for Another Location

Airport or City:

Astronomy

Mar. 25, 2014 Rise Set
Actual Time 7:03 AM CDT 7:29 PM CDT
Civil Twilight 6:34 AM CDT 7:58 PM CDT
Nautical Twilight 5:59 AM CDT 8:33 PM CDT
Astronomical Twilight 5:23 AM CDT 9:09 PM CDT
Moon 3:39 AM CDT 1:47 PM CDT
Length of Visible Light 13h 24m
Length of Day
12h 25m
Waning Crescent, 32% of the Moon is Illuminated
Mar 25
Waning Crescent
Mar 30
New
Apr 7
First Quarter
Apr 15
Full
Apr 22
Last Quarter

Hourly Weather History & Observations

Time (CDT) Temp. Windchill Dew Point Humidity Pressure Visibility Wind Dir Wind Speed Gust Speed Precip Events Conditions
12:15 AM 20.7 °F 7.1 °F 12.7 °F 71% 30.07 in 10.0 mi WNW 15.0 mph 19.6 mph N/A   Mostly Cloudy
12:35 AM 19.4 °F 5.0 °F 15.3 °F 84% 30.08 in 2.5 mi NW 16.1 mph - N/A Snow Light Snow
12:55 AM 18.3 °F 3.1 °F 11.8 °F 76% 30.09 in 5.0 mi NNW 17.3 mph 24.2 mph N/A   Haze
1:15 AM 16.5 °F -0.6 °F 5.7 °F 63% 30.10 in 7.0 mi NNW 20.7 mph 25.3 mph N/A   Clear
1:35 AM 14.9 °F -2.3 °F 3.2 °F 60% 30.11 in 10.0 mi NNW 19.6 mph 25.3 mph N/A   Clear
1:55 AM 14.2 °F -4.1 °F -1.3 °F 50% 30.11 in 7.0 mi NNW 21.9 mph 32.2 mph N/A   Clear
2:15 AM 13.5 °F -3.7 °F -2.2 °F 50% 30.12 in 10.0 mi NNW 18.4 mph 27.6 mph N/A   Clear
2:35 AM 12.9 °F -3.4 °F -2.0 °F 51% 30.13 in 10.0 mi NNW 16.1 mph - N/A   Clear
2:55 AM 12.2 °F -3.1 °F -2.4 °F 52% 30.13 in 10.0 mi NNW 13.8 mph 21.9 mph N/A   Clear
3:15 AM 11.8 °F -4.8 °F -2.6 °F 53% 30.13 in 10.0 mi NW 16.1 mph - N/A   Clear
3:35 AM 11.1 °F -4.5 °F -2.7 °F 54% 30.14 in 10.0 mi NW 13.8 mph - N/A   Clear
3:55 AM 10.8 °F -4.3 °F -2.4 °F 56% 30.14 in 10.0 mi NW 12.7 mph - N/A   Clear
4:15 AM 10.2 °F -6.3 °F -1.7 °F 59% 30.15 in 10.0 mi NNW 15.0 mph 19.6 mph N/A   Clear
4:35 AM 9.7 °F -6.3 °F -2.0 °F 59% 30.16 in 10.0 mi NNW 13.8 mph 19.6 mph N/A   Clear
4:55 AM 9.1 °F -7.0 °F -2.2 °F 60% 30.16 in 10.0 mi NNW 13.8 mph 20.7 mph N/A   Clear
5:15 AM 8.8 °F -8.1 °F -2.7 °F 60% 30.17 in 10.0 mi NNW 15.0 mph - N/A   Clear
5:35 AM 8.2 °F -5.1 °F -2.7 °F 61% 30.18 in 10.0 mi NW 9.2 mph - N/A   Clear
5:55 AM 7.7 °F -6.6 °F -2.6 °F 63% 30.19 in 10.0 mi NW 10.4 mph - N/A   Clear
6:15 AM 6.8 °F -5.9 °F -2.6 °F 66% 30.19 in 10.0 mi NW 8.1 mph - N/A   Clear
6:35 AM 6.6 °F -8.0 °F -2.6 °F 66% 30.20 in 10.0 mi NW 10.4 mph - N/A   Clear
6:55 AM 6.1 °F -9.5 °F -2.7 °F 67% 30.21 in 10.0 mi NW 11.5 mph - N/A   Clear
7:15 AM 6.1 °F -8.7 °F -3.1 °F 66% 30.22 in 10.0 mi NW 10.4 mph 17.3 mph N/A   Clear
7:35 AM 6.6 °F -8.0 °F -3.1 °F 64% 30.23 in 10.0 mi NW 10.4 mph 16.1 mph N/A   Clear
7:55 AM 7.2 °F -8.9 °F -3.1 °F 63% 30.23 in 10.0 mi NW 12.7 mph - N/A   Clear
8:15 AM 7.7 °F -7.4 °F -2.9 °F 62% 30.23 in 10.0 mi NW 11.5 mph - N/A   Clear
8:35 AM 8.2 °F -7.5 °F -2.7 °F 61% 30.23 in 10.0 mi NW 12.7 mph - N/A   Clear
8:55 AM 9.0 °F -6.6 °F -2.7 °F 59% 30.23 in 10.0 mi NW 12.7 mph 17.3 mph N/A   Clear
9:15 AM 9.5 °F -7.2 °F -3.1 °F 57% 30.23 in 10.0 mi NW 15.0 mph 19.6 mph N/A   Clear
9:35 AM 10.2 °F -6.9 °F -3.1 °F 55% 30.24 in 10.0 mi NNW 16.1 mph 21.9 mph N/A   Clear
9:55 AM 10.6 °F -6.9 °F -3.5 °F 53% 30.25 in 10.0 mi NNW 17.3 mph 20.7 mph N/A   Clear
10:15 AM 11.1 °F -6.2 °F -3.1 °F 53% 30.25 in 10.0 mi NW 17.3 mph 24.2 mph N/A   Clear
10:35 AM 11.5 °F -6.3 °F -2.2 °F 54% 30.26 in 10.0 mi NW 18.4 mph 21.9 mph N/A   Clear
10:55 AM 12.2 °F -4.8 °F -2.0 °F 53% 30.26 in 10.0 mi NW 17.3 mph 25.3 mph N/A   Clear
11:15 AM 12.7 °F -3.0 °F -1.8 °F 52% 30.26 in 10.0 mi NW 15.0 mph 23.0 mph N/A   Clear
11:35 AM 13.3 °F -2.9 °F -0.8 °F 54% 30.25 in 10.0 mi NW 16.1 mph 20.7 mph N/A   Clear
11:55 AM 14.0 °F -0.2 °F -0.8 °F 52% 30.25 in 10.0 mi NW 12.7 mph 23.0 mph N/A   Clear
12:15 PM 14.7 °F -0.5 °F -0.4 °F 51% 30.25 in 10.0 mi WNW 15.0 mph 19.6 mph N/A   Clear
12:35 PM 15.4 °F -0.1 °F 0.3 °F 51% 30.24 in 10.0 mi WNW 16.1 mph 23.0 mph N/A   Clear
12:55 PM 15.8 °F 1.4 °F 0.1 °F 50% 30.23 in 10.0 mi NW 13.8 mph 21.9 mph N/A   Clear
1:15 PM 16.9 °F 1.7 °F 1.0 °F 50% 30.23 in 10.0 mi NW 16.1 mph 23.0 mph N/A   Clear
1:35 PM 17.6 °F 2.7 °F 2.3 °F 51% 30.23 in 10.0 mi NW 16.1 mph - N/A   Clear
1:55 PM 18.1 °F 5.0 °F 1.8 °F 49% 30.22 in 10.0 mi NW 12.7 mph 23.0 mph N/A   Scattered Clouds
2:15 PM 18.5 °F 2.9 °F 2.5 °F 50% 30.21 in 10.0 mi NW 18.4 mph - N/A   Scattered Clouds
2:35 PM 18.3 °F 3.1 °F 1.9 °F 49% 30.21 in 10.0 mi WNW 17.3 mph 23.0 mph N/A   Mostly Cloudy
2:55 PM 18.9 °F 4.8 °F 2.3 °F 49% 30.20 in 10.0 mi NW 15.0 mph 24.2 mph N/A   Overcast
3:15 PM 19.9 °F 6.7 °F 3.0 °F 48% 30.20 in 10.0 mi WNW 13.8 mph 20.7 mph N/A   Mostly Cloudy
3:35 PM 20.1 °F 5.4 °F 3.6 °F 49% 30.19 in 10.0 mi WNW 17.3 mph 27.6 mph N/A   Mostly Cloudy
3:55 PM 20.3 °F 8.3 °F 3.9 °F 49% 30.19 in 10.0 mi NW 11.5 mph - N/A   Mostly Cloudy
4:15 PM 19.8 °F 6.5 °F 3.6 °F 50% 30.19 in 10.0 mi NW 13.8 mph 18.4 mph N/A   Mostly Cloudy
4:35 PM 21.0 °F 7.1 °F 3.9 °F 48% 30.18 in 10.0 mi West 16.1 mph - N/A   Mostly Cloudy
4:55 PM 20.3 °F 6.6 °F 3.6 °F 48% 30.18 in 10.0 mi WNW 15.0 mph 21.9 mph N/A   Scattered Clouds
5:15 PM 21.2 °F 8.9 °F 3.7 °F 47% 30.18 in 10.0 mi West 12.7 mph - N/A   Mostly Cloudy
5:35 PM 20.7 °F 10.2 °F 4.3 °F 49% 30.18 in 10.0 mi WNW 9.2 mph 16.1 mph N/A   Overcast
5:55 PM 19.8 °F 9.1 °F 4.1 °F 51% 30.18 in 10.0 mi WNW 9.2 mph - N/A   Mostly Cloudy
6:15 PM 20.1 °F 8.8 °F 4.5 °F 51% 30.18 in 10.0 mi WNW 10.4 mph 17.3 mph N/A   Mostly Cloudy
6:35 PM 19.9 °F 7.9 °F 4.1 °F 50% 30.17 in 10.0 mi WNW 11.5 mph - N/A   Mostly Cloudy
6:55 PM 19.0 °F 10.0 °F 3.7 °F 51% 30.17 in 10.0 mi WNW 6.9 mph - N/A   Clear
7:15 PM 18.0 °F 9.8 °F 4.1 °F 55% 30.17 in 10.0 mi West 5.8 mph - N/A   Scattered Clouds
7:35 PM 17.6 °F 8.2 °F 4.1 °F 56% 30.17 in 10.0 mi WNW 6.9 mph - N/A   Scattered Clouds
7:55 PM 17.4 °F 10.4 °F 4.1 °F 56% 30.17 in 10.0 mi West 4.6 mph - N/A   Mostly Cloudy
8:15 PM 16.3 °F 10.8 °F 3.7 °F 58% 30.17 in 10.0 mi West 3.5 mph - N/A   Scattered Clouds
8:35 PM 15.3 °F - 4.6 °F 63% 30.16 in 10.0 mi Calm Calm - N/A   Clear
8:55 PM 14.9 °F - 4.1 °F 62% 30.16 in 10.0 mi Calm Calm - N/A   Clear
9:15 PM 14.9 °F - 4.1 °F 62% 30.16 in 10.0 mi Calm Calm - N/A   Clear
9:35 PM 13.3 °F - 3.9 °F 66% 30.16 in 10.0 mi Calm Calm - N/A   Clear
9:55 PM 12.0 °F - 3.9 °F 70% 30.16 in 10.0 mi Calm Calm - N/A   Clear
10:15 PM 10.9 °F 4.7 °F 3.9 °F 73% 30.16 in 10.0 mi SW 3.5 mph - N/A   Clear
10:35 PM 10.4 °F 4.0 °F 3.6 °F 74% 30.16 in 10.0 mi SSW 3.5 mph - N/A   Clear
10:55 PM 8.6 °F - 3.4 °F 79% 30.16 in 10.0 mi Calm Calm - N/A   Clear
11:15 PM 8.4 °F - 4.1 °F 83% 30.16 in 10.0 mi Calm Calm - N/A   Clear
11:35 PM 7.7 °F - 3.9 °F 85% 30.16 in 10.0 mi Calm Calm - N/A   Clear
11:55 PM 7.7 °F 1.0 °F 4.1 °F 85% 30.16 in 10.0 mi SSW 3.5 mph - N/A   Clear